Location: Kershaw
(34.5481°N, 80.5823°W)
Time: 18:09:02
(UTC+00:00)

Transit 2A - Pass Details

Date: 03 October 2022
Orbit: 598 x 959 km, 66.7° (Epoch: 02 December)

Event Time Altitude Azimuth Distance (km) Brightness Sun altitude
Rises 12:38:26 0° 344° (NNW) 2,986 8.8 15.3°
Reaches altitude 10° 12:40:52 10° 355° (N) 2,119 8.1 15.8°
Maximum altitude 12:45:11 32° 59° (ENE) 1,223 7.9 16.7°
Drops below altitude 10° 12:49:52 10° 122° (ESE) 2,315 10.5 17.6°
Sets 12:52:38 0° 131° (SE) 3,306 10.5 18.1°
